Estación de Petorca

Ultimos registro cada 15 minutos 21
Estación Fecha / Hora Temperatura Humedad Lluvia Velocidad Dirección Radiación Presion
21 Petorca 05-09-2026 05:00 6 96,7 0 0,5 27 0,6 985
20 Petorca 05-09-2026 04:45 5,9 96,5 0 0 27 0,6 985
19 Petorca 05-09-2026 04:30 5,9 96 0 0 22 0,6 985,2
18 Petorca 05-09-2026 04:15 6,9 96,3 0 0 37 0,6 985,2
17 Petorca 05-09-2026 04:00 6,6 95,3 0 0 3 0,6 985,4
16 Petorca 05-09-2026 03:45 7,8 94,9 0 0 51 0,6 985,4
15 Petorca 05-09-2026 03:30 6,9 96,1 0 0 22 0,6 985,6
14 Petorca 05-09-2026 03:15 7 96,3 0 0,5 22 0,6 985,8
13 Petorca 05-09-2026 03:00 6,8 95,8 0 0 355 0,6 986
12 Petorca 05-09-2026 02:45 8,1 95,1 0 0 24 0,6 986
11 Petorca 05-09-2026 02:30 8,1 95,1 0 0 4 0,6 986,2
10 Petorca 05-09-2026 02:15 8,4 94,5 0 0 282 0,6 986,3
9 Petorca 05-09-2026 02:00 8,2 96,1 0 0 45 0,6 986,4
8 Petorca 05-09-2026 01:45 8 96,8 0 0 18 0,6 986,6
7 Petorca 05-09-2026 01:30 7,6 96,7 0 0 24 0,6 986,7
6 Petorca 05-09-2026 01:15 7,4 96,1 0 0 6 0,6 986,6
5 Petorca 05-09-2026 01:00 7,6 95,8 0 0 237 0,6 986,9
4 Petorca 05-09-2026 00:45 8,1 94,9 0 0 37 0,6 986,7
3 Petorca 05-09-2026 00:30 8,2 95,1 0 0 13 0,6 986,9
2 Petorca 05-09-2026 00:15 8,2 94,6 0 0 14 0,6 987,1
1 Petorca 05-09-2026 00:00 8,4 93,9 0 0 14 0,6 987